Back to catalog

ATLAS F R/B

AliveHEO
NORAD 11142·ROCKET BODY·🇺🇸 United States

Launched Dec 11, 1978 from Vandenberg Space Force Base

Loading…

Next Passes (next 24 hours)

TLE

FreshSource: Space-Track

Epoch: Sep 5, 2026, 22:28 UTC

1 11142U 78112B   26248.93616482 -.00000009  00000-0  00000-0 0  9999
2 11142  64.2573 102.4164 4653680 245.9118  59.4412  5.34624786919995

Track ATLAS F R/B in real time with AllMySat

Download on the App Store